EZY78LD LDSP-EGCC

Flight info

Callsign EZY78LD
Flight time N/A
Altitude 38000
Route UNIPA DCT KOTOR DCT GORPA DCT KFT DCT SIMBA DCT MOOCE L604 SULUS DCT GASKA DCT MASEK DCT ARPEG DCT VELED DCT GALSO Q63 ERING L179 LAM UN57 WELIN T420 ELVOS
Aircraft A320/M-SDE3FGHIRWY/LB1

Departure

Time N/A
Airport Split Saint Jerome Airport (LDSP)

Arrival

Time 2026-05-05 22:43
Airport Manchester Airport (EGCC)
Time Latitude Longitude Altitude Speed Heading
2026-05-05 22:34 53.19922 -2.31710 5448 ft 244 kts 258°
2026-05-05 22:34 53.19544 -2.34472 5194 ft 244 kts 258°
2026-05-05 22:34 53.19163 -2.37234 4913 ft 244 kts 258°
2026-05-05 22:34 53.18780 -2.39991 4619 ft 244 kts 257°
2026-05-05 22:35 53.18400 -2.42716 4359 ft 246 kts 257°
2026-05-05 22:35 53.18014 -2.45487 4102 ft 247 kts 257°
2026-05-05 22:35 53.17623 -2.48286 3846 ft 247 kts 257°
2026-05-05 22:35 53.17244 -2.51003 3751 ft 234 kts 258°
2026-05-05 22:36 53.16902 -2.53586 3681 ft 224 kts 263°
2026-05-05 22:36 53.17127 -2.56037 3625 ft 209 kts 304°
2026-05-05 22:36 53.18101 -2.57610 3597 ft 186 kts 335°
2026-05-05 22:36 53.19301 -2.58112 3541 ft 176 kts
2026-05-05 22:37 53.20462 -2.57626 3506 ft 172 kts 30°
2026-05-05 22:37 53.21338 -2.56358 3463 ft 170 kts 53°
2026-05-05 22:37 53.22077 -2.54841 3425 ft 167 kts 52°
2026-05-05 22:37 53.22805 -2.53351 3368 ft 165 kts 51°
2026-05-05 22:38 53.23535 -2.51856 3336 ft 166 kts 51°
2026-05-05 22:38 53.24271 -2.50348 3293 ft 167 kts 50°
2026-05-05 22:38 53.25000 -2.48852 3184 ft 164 kts 51°
2026-05-05 22:38 53.25713 -2.47390 3084 ft 161 kts 51°
2026-05-05 22:39 53.26429 -2.45922 2910 ft 162 kts 52°
2026-05-05 22:39 53.27132 -2.44480 2700 ft 160 kts 52°
2026-05-05 22:39 53.27828 -2.43049 2522 ft 158 kts 52°
2026-05-05 22:39 53.28480 -2.41712 2293 ft 139 kts 52°
2026-05-05 22:40 53.29065 -2.40509 2107 ft 129 kts 53°
2026-05-05 22:40 53.29623 -2.39362 1934 ft 126 kts 53°
2026-05-05 22:40 53.30170 -2.38234 1772 ft 125 kts 53°
2026-05-05 22:40 53.30718 -2.37107 1589 ft 125 kts 53°
2026-05-05 22:41 53.31264 -2.35981 1421 ft 124 kts 53°
2026-05-05 22:41 53.31807 -2.34861 1236 ft 125 kts 52°
2026-05-05 22:41 53.32345 -2.33754 1060 ft 124 kts 51°
2026-05-05 22:41 53.32904 -2.32644 881 ft 127 kts 50°
2026-05-05 22:42 53.33458 -2.31513 698 ft 126 kts 52°
2026-05-05 22:42 53.33999 -2.30365 516 ft 126 kts 52°
2026-05-05 22:42 53.34547 -2.29226 328 ft 126 kts 52°
2026-05-05 22:42 53.35068 -2.28126 239 ft 107 kts 50°
2026-05-05 22:43 53.35418 -2.27402 259 ft 56 kts 50°
2026-05-05 22:43 53.35568 -2.27093 263 ft 23 kts 51°
2026-05-05 22:43 53.35615 -2.27069 265 ft 4 kts 308°
2026-05-05 22:43 53.35630 -2.27093 266 ft 2 kts 320°
2026-05-05 22:44 53.35646 -2.27115 265 ft 6 kts 320°
2026-05-05 22:44 53.35706 -2.27194 257 ft 0 kts 321°
2026-05-05 22:44 53.35714 -2.27206 255 ft 5 kts 321°
2026-05-05 22:44 53.35722 -2.27217 254 ft 2 kts 321°
2026-05-05 22:45 53.35759 -2.27265 248 ft 12 kts 321°
2026-05-05 22:45 53.35753 -2.27395 248 ft 15 kts 229°
2026-05-05 22:45 53.35684 -2.27539 248 ft 16 kts 231°
2026-05-05 22:45 53.35753 -2.27653 247 ft 18 kts 338°
2026-05-05 22:46 53.35848 -2.27804 247 ft 20 kts 311°
2026-05-05 22:46 53.35937 -2.27842 247 ft 13 kts
2026-05-05 22:46 53.36014 -2.27914 247 ft 13 kts 315°
2026-05-05 22:46 53.36074 -2.28014 247 ft 12 kts 315°
2026-05-05 22:47 53.36130 -2.28107 247 ft 11 kts 315°
2026-05-05 22:47 53.36181 -2.28192 247 ft 10 kts 315°
2026-05-05 22:47 53.36227 -2.28271 247 ft 9 kts 314°
2026-05-05 22:47 53.36270 -2.28346 247 ft 9 kts 314°
2026-05-05 22:48 53.36319 -2.28427 247 ft 11 kts 315°
2026-05-05 22:48 53.36397 -2.28483 247 ft 14 kts 350°
2026-05-05 22:48 53.36479 -2.28587 247 ft 16 kts 315°
2026-05-05 22:48 53.36558 -2.28720 247 ft 17 kts 312°
2026-05-05 22:49 53.36632 -2.28885 247 ft 18 kts 329°
2026-05-05 22:49 53.36722 -2.29000 247 ft 16 kts 315°
2026-05-05 22:49 53.36803 -2.29023 247 ft 14 kts 18°
2026-05-05 22:49 53.36862 -2.28925 247 ft 8 kts 103°
2026-05-05 22:50 53.36841 -2.28893 247 ft 3 kts 131°
2026-05-05 22:50 53.36833 -2.28878 247 ft 0 kts 134°